• In Deutschland
  • Länderverzeichnis
  • Für 7 Tage
  • Wassertemperatur
  • Satellitenkarten
  • Wetterkarte
  • Widgets
  • user-avatar
    Anmelden

    Stündliche Wetter Heidelberg

    Heute, 17 Juli, Dienstag

    Zeit Temperatur Niederschläge Wind Luftdruck Luftfeuchtigkeit
    00:00 +20°C° 0,3 mm 1 m/S 731 mmHg 71%
    01:00 +20°C° 0,3 mm 1 m/S 731 mmHg 73%
    02:00 +19°C° 0,1 mm 1 m/S 731 mmHg 74%
    03:00 +19°C° 0,1 mm 1 m/S 731 mmHg 76%
    04:00 +18°C° 0,1 mm 1 m/S 731 mmHg 77%
    05:00 +19°C° 0 mm 1 m/S 731 mmHg 75%
    06:00 +20°C° 0 mm 1 m/S 732 mmHg 74%
    07:00 +21°C° 0 mm 1 m/S 732 mmHg 72%
    08:00 +23°C° 0,2 mm 1 m/S 732 mmHg 66%
    09:00 +25°C° 0,2 mm 2 m/S 732 mmHg 61%
    10:00 +26°C° 0,2 mm 2 m/S 732 mmHg 55%
    11:00 +27°C° 0,1 mm 2 m/S 733 mmHg 49%
    12:00 +28°C° 0,1 mm 2 m/S 733 mmHg 43%
    13:00 +30°C° 0,1 mm 2 m/S 733 mmHg 36%
    14:00 +30°C° 0 mm 2 m/S 733 mmHg 37%
    15:00 +30°C° 0 mm 2 m/S 732 mmHg 38%
    16:00 +30°C° 0 mm 2 m/S 732 mmHg 39%
    17:00 +28°C° 0 mm 2 m/S 732 mmHg 43%
    18:00 +27°C° 0 mm 2 m/S 732 mmHg 48%
    19:00 +26°C° 0 mm 2 m/S 732 mmHg 52%
    20:00 +25°C° 0 mm 2 m/S 733 mmHg 57%
    21:00 +23°C° 0 mm 2 m/S 733 mmHg 61%
    22:00 +21°C° 0 mm 2 m/S 733 mmHg 66%
    23:00 +20°C° 0,1 mm 2 m/S 733 mmHg 69%

    Morgen, 18 Juli, Mittwoch

    Zeit Temperatur Niederschläge Wind Luftdruck Luftfeuchtigkeit
    00:00 +20°C° 0,1 mm 2 m/S 733 mmHg 73%
    01:00 +19°C° 0,1 mm 2 m/S 733 mmHg 76%
    02:00 +18°C° 0 mm 2 m/S 734 mmHg 79%
    03:00 +18°C° 0 mm 2 m/S 734 mmHg 81%
    04:00 +18°C° 0 mm 1 m/S 734 mmHg 84%
    05:00 +19°C° 0 mm 1 m/S 734 mmHg 82%
    06:00 +19°C° 0 mm 1 m/S 734 mmHg 79%
    07:00 +20°C° 0 mm 1 m/S 734 mmHg 77%
    08:00 +21°C° 0 mm 2 m/S 734 mmHg 70%
    09:00 +23°C° 0 mm 2 m/S 735 mmHg 64%
    10:00 +25°C° 0 mm 2 m/S 735 mmHg 57%
    11:00 +26°C° 0 mm 2 m/S 735 mmHg 53%
    12:00 +27°C° 0 mm 2 m/S 735 mmHg 49%
    13:00 +28°C° 0 mm 2 m/S 734 mmHg 45%
    14:00 +28°C° 0 mm 2 m/S 734 mmHg 45%
    15:00 +28°C° 0 mm 2 m/S 734 mmHg 44%
    16:00 +28°C° 0 mm 2 m/S 734 mmHg 43%
    17:00 +27°C° 0 mm 2 m/S 734 mmHg 47%
    18:00 +27°C° 0 mm 2 m/S 734 mmHg 51%
    19:00 +26°C° 0 mm 1 m/S 734 mmHg 55%
    20:00 +24°C° 0 mm 1 m/S 734 mmHg 58%
    21:00 +23°C° 0 mm 1 m/S 734 mmHg 61%
    22:00 +21°C° 0 mm 1 m/S 734 mmHg 65%
    23:00 +21°C° 0 mm 1 m/S 734 mmHg 68%

    übermorgen, 19 Juli, Donnerstag

    Zeit Temperatur Niederschläge Wind Luftdruck Luftfeuchtigkeit
    00:00 +20°C° 0 mm 1 m/S 734 mmHg 71%
    01:00 +19°C° 0 mm 1 m/S 734 mmHg 74%
    02:00 +19°C° 0 mm 1 m/S 734 mmHg 76%
    03:00 +18°C° 0 mm 1 m/S 734 mmHg 79%
    04:00 +18°C° 0 mm 1 m/S 734 mmHg 81%
    05:00 +19°C° 0 mm 1 m/S 734 mmHg 78%
    06:00 +20°C° 0 mm 1 m/S 734 mmHg 75%
    07:00 +21°C° 0 mm 1 m/S 734 mmHg 72%
    08:00 +22°C° 0 mm 1 m/S 735 mmHg 66%
    09:00 +24°C° 0 mm 2 m/S 735 mmHg 61%
    10:00 +26°C° 0 mm 2 m/S 735 mmHg 55%
    11:00 +27°C° 0 mm 2 m/S 735 mmHg 50%
    12:00 +28°C° 0 mm 2 m/S 734 mmHg 45%
    13:00 +29°C° 0 mm 2 m/S 734 mmHg 40%
    14:00 +29°C° 0 mm 2 m/S 734 mmHg 40%
    15:00 +29°C° 0 mm 2 m/S 734 mmHg 40%
    16:00 +29°C° 0 mm 2 m/S 734 mmHg 40%
    17:00 +28°C° 0 mm 2 m/S 733 mmHg 44%
    18:00 +27°C° 0 mm 2 m/S 733 mmHg 49%
    19:00 +26°C° 0 mm 2 m/S 733 mmHg 53%
    20:00 +25°C° 0 mm 2 m/S 733 mmHg 55%
    21:00 +24°C° 0 mm 2 m/S 733 mmHg 57%
    22:00 +21°C° 0 mm 2 m/S 733 mmHg 60%
    23:00 +21°C° 0 mm 2 m/S 733 mmHg 62%

    20 Juli, Freitag

    Zeit Temperatur Niederschläge Wind Luftdruck Luftfeuchtigkeit
    00:00 +20°C° 0 mm 2 m/S 733 mmHg 64%
    01:00 +19°C° 0 mm 2 m/S 733 mmHg 67%
    02:00 +19°C° 0 mm 2 m/S 733 mmHg 68%
    03:00 +18°C° 0 mm 2 m/S 732 mmHg 70%
    04:00 +19°C° 0 mm 1 m/S 732 mmHg 72%
    05:00 +20°C° 0 mm 1 m/S 732 mmHg 70%
    06:00 +20°C° 0 mm 1 m/S 732 mmHg 68%
    07:00 +21°C° 0 mm 1 m/S 732 mmHg 67%
    08:00 +23°C° 0 mm 2 m/S 732 mmHg 61%
    09:00 +25°C° 0 mm 2 m/S 732 mmHg 56%
    10:00 +27°C° 0 mm 2 m/S 732 mmHg 51%
    11:00 +28°C° 0,1 mm 2 m/S 732 mmHg 50%
    12:00 +28°C° 0,1 mm 2 m/S 732 mmHg 48%
    13:00 +29°C° 0,1 mm 2 m/S 732 mmHg 46%
    14:00 +28°C° 0,5 mm 2 m/S 731 mmHg 53%
    15:00 +27°C° 0,5 mm 2 m/S 731 mmHg 59%
    16:00 +26°C° 0,5 mm 2 m/S 731 mmHg 66%
    17:00 +25°C° 2,5 mm 2 m/S 731 mmHg 71%
    18:00 +24°C° 2,5 mm 2 m/S 730 mmHg 76%
    19:00 +21°C° 2,5 mm 2 m/S 730 mmHg 81%
    20:00 +22°C° 0,7 mm 1 m/S 730 mmHg 82%
    21:00 +21°C° 0,7 mm 1 m/S 730 mmHg 84%
    22:00 +20°C° 0,7 mm 1 m/S 730 mmHg 85%
    23:00 +20°C° 0 mm 1 m/S 730 mmHg 86%

    21 Juli, Samstag

    Zeit Temperatur Niederschläge Wind Luftdruck Luftfeuchtigkeit
    00:00 +20°C° 0 mm 1 m/S 730 mmHg 87%
    01:00 +19°C° 0 mm 1 m/S 730 mmHg 88%
    02:00 +19°C° 0 mm 1 m/S 730 mmHg 89%
    03:00 +19°C° 0 mm 1 m/S 730 mmHg 90%
    04:00 +18°C° 0 mm 1 m/S 730 mmHg 91%
    05:00 +19°C° 0 mm 1 m/S 730 mmHg 89%
    06:00 +20°C° 0 mm 1 m/S 730 mmHg 87%
    07:00 +20°C° 0 mm 1 m/S 730 mmHg 85%
    08:00 +20°C° 0,2 mm 2 m/S 730 mmHg 81%
    09:00 +21°C° 0,2 mm 2 m/S 731 mmHg 77%
    10:00 +23°C° 0,2 mm 2 m/S 731 mmHg 73%
    11:00 +24°C° 0,8 mm 2 m/S 731 mmHg 71%
    12:00 +24°C° 0,8 mm 3 m/S 731 mmHg 69%
    13:00 +25°C° 0,8 mm 3 m/S 731 mmHg 66%
    14:00 +25°C° 0,6 mm 3 m/S 731 mmHg 65%
    15:00 +25°C° 0,6 mm 3 m/S 731 mmHg 63%
    16:00 +25°C° 0,6 mm 3 m/S 731 mmHg 62%
    17:00 +25°C° 0,4 mm 3 m/S 731 mmHg 64%
    18:00 +24°C° 0,4 mm 2 m/S 731 mmHg 67%
    19:00 +23°C° 0,4 mm 2 m/S 731 mmHg 70%
    20:00 +21°C° 0,1 mm 2 m/S 732 mmHg 73%
    21:00 +20°C° 0,1 mm 2 m/S 732 mmHg 76%
    22:00 +20°C° 0,1 mm 1 m/S 732 mmHg 79%
    23:00 +19°C° 0 mm 1 m/S 732 mmHg 80%

    22 Juli, Sonntag

    Zeit Temperatur Niederschläge Wind Luftdruck Luftfeuchtigkeit
    00:00 +19°C° 0 mm 1 m/S 733 mmHg 81%
    01:00 +16°C° 0 mm 0 m/S 733 mmHg 83%
    02:00 +18°C° 0 mm 1 m/S 733 mmHg 83%
    03:00 +18°C° 0 mm 1 m/S 733 mmHg 84%
    04:00 +16°C° 0 mm 1 m/S 733 mmHg 85%
    05:00 +18°C° 0,1 mm 1 m/S 733 mmHg 82%
    06:00 +19°C° 0,1 mm 1 m/S 734 mmHg 80%
    07:00 +19°C° 0,1 mm 1 m/S 734 mmHg 78%
    08:00 +19°C° 0,2 mm 2 m/S 734 mmHg 72%
    09:00 +21°C° 0,2 mm 2 m/S 734 mmHg 65%
    10:00 +23°C° 0,2 mm 2 m/S 734 mmHg 59%
    11:00 +24°C° 0 mm 3 m/S 734 mmHg 54%
    12:00 +25°C° 0 mm 3 m/S 734 mmHg 49%
    13:00 +26°C° 0 mm 3 m/S 734 mmHg 44%
    14:00 +26°C° 0 mm 3 m/S 734 mmHg 43%
    15:00 +26°C° 0 mm 3 m/S 734 mmHg 43%
    16:00 +26°C° 0 mm 3 m/S 734 mmHg 43%
    17:00 +25°C° 0 mm 3 m/S 734 mmHg 48%
    18:00 +24°C° 0 mm 2 m/S 734 mmHg 54%
    19:00 +24°C° 0 mm 2 m/S 734 mmHg 59%
    20:00 +21°C° 0 mm 2 m/S 734 mmHg 64%
    21:00 +20°C° 0 mm 2 m/S 734 mmHg 68%
    22:00 +20°C° 0 mm 1 m/S 735 mmHg 73%
    23:00 +19°C° 0 mm 1 m/S 735 mmHg 75%
    Mehr zeigen